Theta_e
314 314 314 313 313 313 312 311 311 311 310 308 311 317 315 315 316 311 308 308 307 306 307 307 306 306 307 308 308 309 310 311 311 310 311 311 311 312 311 310 308 308 309 310 313 314 314 315 314 314 315 315 315 315 315 315 316 316 316 315 314 314 314 316 318 318 317 317 317 318 317 318 325 332 334 335 335 335 336 338 338 336 336 335 334 334 331 330
313 313 313 312 313 313 312 311 311 311 311 308 310 317 316 314 317 311 308 309 307 307 307 307 307 307 308 309 309 311 312 312 311 310 311 312 312 312 311 310 311 311 311 312 313 314 314 315 314 314 315 316 315 315 315 315 315 316 317 315 315 315 316 318 319 318 318 317 317 318 316 318 325 329 332 332 331 333 333 334 336 335 336 333 330 330 328 329
312 312 311 311 313 313 312 311 311 311 311 308 310 317 316 314 317 312 309 309 308 307 307 307 307 307 308 309 310 312 314 315 315 313 312 313 313 313 312 311 311 311 312 313 313 314 315 315 314 314 315 316 315 315 315 315 315 316 317 315 316 316 317 318 318 318 318 317 317 318 315 318 324 327 329 328 325 328 328 330 332 331 337 336 329 327 328 329
311 311 311 312 313 313 312 311 311 312 311 308 311 317 316 314 317 313 310 309 309 308 307 307 307 308 308 309 311 313 315 318 318 315 314 314 314 314 313 312 310 310 312 313 313 313 314 314 314 315 315 316 315 314 315 315 315 316 315 315 317 317 317 318 318 317 317 316 316 317 316 317 323 326 327 326 323 324 323 325 327 324 334 336 328 326 327 325
310 310 311 313 313 313 312 311 311 312 311 309 313 318 315 315 316 314 311 310 309 309 308 308 308 308 309 311 312 313 316 318 316 315 315 315 315 314 314 313 310 309 310 311 312 312 313 313 313 313 315 315 315 313 314 315 315 316 315 316 317 317 317 317 317 317 316 316 315 316 316 317 321 324 325 326 322 322 326 326 325 325 332 334 328 325 323 322
310 311 312 313 313 312 311 311 312 312 310 310 315 318 315 315 316 314 312 312 310 310 310 309 309 309 310 313 314 315 317 317 315 316 315 315 316 315 314 313 310 309 310 311 311 312 312 312 313 313 314 314 314 313 314 315 314 315 315 316 317 316 317 317 317 316 315 315 315 316 316 317 320 321 322 324 323 325 328 329 329 333 336 333 327 325 326 328
310 311 312 313 313 312 311 311 312 311 310 313 317 317 315 316 316 314 313 313 312 312 313 313 311 311 312 314 315 316 317 316 315 316 315 315 316 315 315 312 309 310 311 311 311 312 312 312 313 313 314 314 314 315 314 314 314 314 315 316 316 316 316 317 316 316 314 315 315 314 315 317 318 319 321 322 323 326 327 329 332 335 335 331 328 328 333 333
310 311 312 313 312 311 311 312 311 310 312 316 317 315 315 316 316 315 314 314 314 314 315 315 313 313 313 314 316 317 316 314 313 315 316 316 315 316 316 311 310 311 312 312 312 312 313 313 314 313 313 314 314 315 314 314 315 314 315 316 316 316 316 315 315 315 314 315 314 314 315 317 318 320 322 320 322 326 326 329 332 333 333 332 332 330 330 330
310 310 312 312 312 311 311 310 310 312 315 317 316 315 316 317 316 316 315 315 315 315 315 315 314 314 314 314 316 318 314 311 311 315 317 317 316 316 315 311 310 311 312 313 312 313 314 314 314 313 314 315 314 315 315 314 314 315 315 316 316 315 315 315 315 315 315 314 314 314 315 316 318 320 321 319 322 327 326 329 332 332 332 333 334 331 328 328
310 311 312 312 312 311 310 310 312 316 317 316 315 316 317 317 317 316 315 315 315 314 315 315 315 314 315 315 317 316 312 309 311 314 316 316 316 316 316 313 312 312 312 312 312 313 314 314 314 314 314 314 314 314 315 314 314 314 315 315 315 315 315 315 315 315 314 314 314 314 315 316 318 319 318 319 325 327 326 329 332 331 332 332 334 332 328 327
310 311 312 312 312 311 311 313 316 317 317 316 317 318 319 318 318 317 315 315 315 314 315 315 315 315 315 316 317 315 311 309 313 314 314 316 316 316 316 314 313 313 312 312 312 313 313 313 313 313 314 313 313 314 314 314 313 314 314 314 315 315 315 315 315 315 314 314 314 315 317 318 320 318 318 322 326 327 325 328 330 329 330 331 333 332 326 325
310 311 312 312 312 312 314 316 317 316 316 317 319 320 320 320 319 317 315 315 314 315 316 316 316 316 317 317 316 314 310 309 313 313 313 316 316 316 315 313 313 313 311 312 312 312 313 313 313 314 314 313 313 314 313 313 313 314 314 314 314 315 315 315 315 314 315 315 314 316 317 317 319 317 319 324 325 326 325 327 328 328 329 330 332 331 327 324
310 311 312 312 312 313 315 316 316 316 317 318 320 320 319 318 318 316 315 315 315 315 316 317 316 317 318 317 315 313 310 308 310 311 312 315 315 314 313 312 312 312 312 312 312 312 312 312 313 314 313 313 314 313 312 313 313 314 314 314 314 314 314 315 314 314 315 314 314 317 314 315 318 317 320 325 325 325 325 325 327 327 328 329 331 332 329 324
311 312 312 311 312 314 316 317 318 319 319 319 319 318 317 317 317 316 316 315 316 316 317 316 316 317 318 317 316 314 312 310 309 309 311 312 312 312 312 312 312 312 312 312 312 312 312 312 312 313 313 313 314 313 313 314 314 314 314 314 314 313 313 315 315 315 315 313 315 316 313 314 318 317 321 325 325 324 323 323 325 325 326 329 331 332 333 328
311 312 311 311 313 315 317 318 319 318 319 320 319 318 317 317 317 317 317 317 317 317 317 317 317 319 319 317 317 315 313 313 311 310 311 311 311 312 312 312 312 312 313 313 313 313 313 312 312 314 314 313 313 313 314 314 314 314 312 312 313 312 313 315 314 315 314 313 315 314 312 315 318 317 320 324 324 323 322 321 323 324 325 329 332 332 334 333
311 312 311 311 314 316 317 317 317 316 317 318 319 319 319 318 317 318 318 318 318 317 317 317 317 319 319 317 317 316 315 316 313 312 312 311 312 312 312 313 313 314 314 314 314 313 313 313 313 314 314 314 314 314 314 313 313 314 313 312 313 312 312 314 314 315 315 314 314 314 313 315 317 317 318 321 323 323 322 321 323 324 325 330 332 332 334 335
311 312 312 312 315 316 315 315 316 316 316 316 317 318 318 318 317 318 318 318 318 317 317 317 317 319 319 317 318 316 316 316 314 313 313 313 313 313 313 313 314 314 314 314 314 313 313 314 314 314 315 315 315 315 314 312 312 313 313 313 313 312 312 312 313 314 314 314 314 314 314 315 315 317 318 319 321 322 322 322 323 325 327 330 331 332 334 335
311 312 313 313 314 315 315 316 316 317 316 315 315 317 317 317 317 317 317 318 318 319 319 318 318 320 317 317 318 316 317 316 314 314 314 314 314 314 314 314 314 314 314 314 314 314 314 315 316 316 317 317 316 316 313 312 313 313 313 313 312 313 312 312 313 314 314 314 314 314 314 314 315 316 318 321 321 321 321 322 323 325 328 330 331 331 332 334
311 313 314 314 313 314 315 316 317 317 315 315 316 317 317 317 317 317 318 318 319 320 320 319 319 319 317 318 319 317 317 316 315 316 315 315 315 315 315 314 315 315 316 316 315 316 316 317 318 317 317 317 317 316 314 314 314 312 312 312 312 312 312 313 313 315 315 314 314 314 315 315 316 316 317 322 324 322 322 321 323 326 328 330 330 330 331 332
312 313 315 315 313 313 315 317 318 316 314 315 316 317 320 320 320 319 319 318 318 319 319 318 319 319 318 318 318 318 317 316 317 317 316 316 315 315 315 315 316 316 317 317 316 317 318 318 318 317 317 317 316 316 316 315 314 313 312 311 312 311 312 314 314 315 315 314 314 315 315 315 316 316 316 321 325 326 324 324 326 326 328 329 329 330 332 333
312 313 316 316 314 314 316 317 318 315 313 314 316 320 323 323 321 320 320 319 317 318 318 318 318 318 318 317 317 318 318 317 317 316 316 316 315 315 316 316 316 317 316 316 317 317 318 318 318 317 317 316 315 315 315 315 314 312 312 311 312 312 312 314 315 315 315 314 314 315 315 315 315 317 317 320 324 327 327 326 328 327 327 329 330 332 334 335
312 313 315 317 316 316 316 317 318 316 313 314 318 321 321 320 319 319 320 320 318 318 319 318 318 318 317 317 317 317 318 318 317 317 316 316 316 316 317 317 316 316 316 316 317 317 318 318 317 318 317 315 314 314 314 314 314 313 313 312 311 312 313 314 315 315 315 314 315 316 315 315 316 317 318 318 320 325 329 329 330 330 329 330 330 333 334 334
312 313 315 317 317 317 317 317 318 316 315 317 319 320 318 317 317 318 320 321 319 319 319 319 319 319 318 317 317 317 318 318 318 317 316 315 317 316 317 318 316 316 316 316 317 317 317 317 318 318 318 316 316 316 315 315 315 314 314 312 311 314 313 312 314 315 315 315 315 316 315 316 317 317 317 319 318 322 327 329 330 331 330 330 331 332 333 333
312 313 314 316 317 317 318 317 317 316 316 319 319 318 317 317 318 319 321 322 320 319 319 319 318 319 319 318 317 318 318 318 318 318 316 316 317 316 317 317 316 317 316 316 317 317 317 318 319 319 318 317 317 318 318 316 316 315 315 314 314 315 314 313 315 316 316 316 316 316 314 314 316 317 317 319 320 322 326 328 329 330 330 330 331 332 333 333
312 313 313 314 316 317 317 318 316 314 317 320 320 319 319 320 320 319 322 323 320 319 320 319 319 318 319 318 318 318 319 319 319 319 318 318 317 316 317 317 317 317 316 316 316 317 318 319 319 319 318 318 318 318 319 317 316 315 316 317 316 315 315 315 315 315 314 314 315 315 312 313 315 317 318 319 321 323 326 327 328 328 329 330 331 332 332 332
312 313 313 313 315 316 318 320 315 314 319 321 320 321 321 322 321 320 322 322 318 319 320 320 320 319 319 319 318 318 318 319 319 320 319 317 316 316 317 318 318 317 316 316 317 317 318 319 319 319 318 318 318 318 319 318 317 316 317 318 317 316 315 315 315 314 313 312 316 316 313 312 314 316 318 318 320 322 324 325 325 326 327 328 329 330 332 331
312 313 313 313 313 315 319 319 314 316 320 321 321 321 321 323 322 321 322 320 318 318 319 320 320 319 320 319 318 318 319 319 319 320 320 317 317 318 318 318 319 318 317 317 317 318 319 319 319 319 319 318 318 318 318 318 318 317 318 318 318 317 316 316 315 314 314 314 316 316 315 313 312 315 319 319 320 322 324 324 325 326 327 327 327 328 330 331
312 313 313 312 313 314 316 315 315 318 321 321 321 321 321 322 322 324 323 319 319 319 319 320 320 319 320 320 320 320 320 320 320 320 320 319 318 319 319 319 318 319 319 318 317 318 319 319 318 319 319 319 318 318 318 318 318 318 318 318 318 318 317 317 316 315 315 315 315 315 316 314 312 316 320 321 322 324 325 324 324 326 327 328 328 327 327 329
312 312 312 312 314 315 315 317 318 320 320 321 322 322 322 322 323 324 321 319 320 319 319 320 320 320 320 320 320 321 320 320 321 320 320 319 318 319 319 318 319 319 319 319 318 318 318 318 318 318 318 318 317 318 317 317 318 319 318 318 319 318 317 317 316 316 315 316 315 315 315 314 315 320 322 322 323 323 324 323 323 325 325 326 328 329 327 326
311 312 313 314 316 317 318 320 320 320 321 321 322 322 322 322 323 322 320 320 321 320 320 320 320 320 320 320 320 320 320 320 321 320 320 320 319 319 318 318 319 319 319 319 318 318 318 318 318 317 317 317 317 317 318 317 317 318 317 318 319 319 320 319 317 316 316 317 316 315 316 315 316 321 322 322 323 322 322 322 322 324 324 324 325 328 328 326
314 315 316 317 318 318 320 321 320 320 321 322 322 320 321 323 322 320 319 320 320 321 320 320 320 320 319 319 320 320 320 320 320 320 320 320 319 319 319 318 319 319 319 318 318 318 318 318 318 317 317 317 316 317 318 318 318 318 317 318 318 320 322 321 319 318 317 317 317 316 317 315 317 323 322 321 321 320 321 321 321 322 323 323 323 325 327 328
316 317 318 318 319 319 320 321 320 319 321 322 322 321 323 322 319 320 320 319 320 322 320 320 320 320 319 319 319 319 319 320 320 320 319 319 319 319 318 318 318 318 317 317 317 317 317 317 317 317 317 317 316 315 316 316 317 317 318 319 319 319 321 321 321 320 318 318 318 316 316 316 320 322 321 321 321 320 321 321 321 322 322 323 322 322 324 326
317 318 318 318 319 319 320 320 318 318 320 322 322 323 323 318 318 321 321 320 321 321 320 320 319 319 319 319 319 319 319 320 320 320 319 319 319 319 318 318 318 317 317 317 316 315 315 317 316 316 316 317 316 315 315 316 316 317 318 319 319 320 321 321 321 320 319 319 318 316 317 319 321 321 320 320 321 321 322 322 321 322 322 322 322 321 321 322
318 318 318 319 319 319 320 319 318 317 319 321 323 323 319 316 318 322 321 320 320 319 319 320 319 319 320 320 320 319 319 319 319 319 319 319 320 320 319 318 317 318 317 317 316 316 315 315 316 315 315 316 316 316 316 316 316 318 318 317 319 320 320 321 321 320 319 319 319 317 317 320 322 321 320 320 321 321 321 321 321 322 322 322 322 322 321 321
318 318 318 318 319 320 319 318 317 316 317 321 322 320 318 318 320 321 320 320 319 319 319 318 319 320 320 319 318 318 318 319 318 318 319 318 319 319 319 318 318 318 318 317 317 316 315 315 316 316 316 316 316 317 317 317 317 318 317 318 320 320 319 320 321 321 321 320 319 319 319 320 321 320 319 319 320 320 320 320 321 321 322 322 322 322 322 321
318 318 318 318 319 319 318 317 317 316 317 321 320 318 318 320 320 321 321 320 319 320 320 318 319 320 319 319 319 318 317 318 318 318 319 318 318 319 318 317 317 317 317 317 317 316 314 315 315 315 316 316 316 317 317 317 318 318 318 319 319 319 319 320 321 321 320 319 319 320 320 321 320 319 319 318 318 319 319 320 320 321 321 321 321 322 321 321
318 319 319 319 319 318 317 317 317 316 318 321 319 318 320 320 319 319 320 320 320 320 320 320 320 319 320 319 319 318 317 317 318 318 319 319 318 317 317 317 318 317 317 316 317 316 315 315 315 314 315 316 316 317 317 317 318 318 318 318 317 317 319 320 320 319 319 318 318 319 321 321 321 320 319 318 319 318 317 319 320 320 320 320 320 321 321 321
318 319 320 320 319 318 317 317 316 317 319 320 319 318 319 319 319 320 319 319 320 320 320 320 319 319 319 319 318 317 316 317 318 318 319 320 318 316 316 316 317 317 318 317 316 316 316 316 316 314 315 315 316 316 317 317 317 317 318 318 318 319 319 319 319 319 319 318 318 319 320 321 320 320 319 318 319 318 317 318 318 319 320 320 320 320 320 321
318 321 321 320 319 317 317 316 317 318 320 318 318 319 319 318 319 320 319 319 320 320 320 320 319 319 318 318 318 317 316 317 318 318 319 320 319 317 315 315 316 316 318 317 315 316 316 316 316 315 314 315 315 316 317 318 317 318 318 318 318 319 319 319 319 319 320 319 318 318 319 321 319 318 318 318 317 317 317 317 317 319 320 319 320 320 320 320
319 322 322 319 319 317 316 317 319 319 319 319 319 319 318 318 319 319 319 319 320 320 320 319 319 319 319 317 317 316 316 316 317 319 319 319 319 317 315 315 315 315 316 317 316 316 316 316 316 315 315 315 316 316 316 317 317 317 318 318 318 318 318 319 319 319 319 319 319 317 318 321 319 316 316 316 316 316 316 316 317 319 319 319 320 320 320 320
320 323 321 318 317 317 317 318 320 320 319 319 319 318 318 318 319 318 318 318 319 319 319 319 318 318 318 318 317 315 316 317 317 318 318 318 318 317 316 315 314 314 316 316 316 316 316 316 315 315 315 316 316 315 316 317 316 316 317 317 317 318 318 319 319 318 319 319 319 318 319 320 318 315 315 315 315 316 316 317 318 318 318 319 319 319 319 320
320 322 320 317 317 317 318 319 319 320 319 318 318 318 318 318 318 318 318 318 318 318 318 318 317 317 317 317 316 314 315 317 317 317 318 316 316 316 315 314 313 314 316 315 316 317 318 317 316 315 315 315 316 316 317 317 316 315 316 316 316 317 318 318 318 318 318 318 319 318 319 319 317 315 316 316 315 317 317 317 318 318 318 318 318 318 319 319
322 321 319 317 317 318 319 318 318 320 319 318 318 318 317 318 318 317 317 318 318 318 318 317 317 317 317 317 316 314 315 317 316 317 317 315 314 314 314 314 314 316 317 316 316 318 318 317 316 315 315 316 316 316 317 317 316 315 315 315 316 317 317 317 318 318 318 318 319 317 318 320 318 316 316 316 316 316 316 317 317 317 318 318 318 318 318 318
322 320 319 318 317 318 320 318 317 318 318 318 318 317 318 318 318 317 317 318 318 318 318 317 317 317 316 316 316 314 315 316 316 316 315 314 314 314 314 315 315 317 318 317 318 318 317 316 316 315 314 315 316 317 317 316 315 315 315 316 316 316 317 317 318 318 318 319 319 317 318 319 318 316 316 316 315 316 316 316 317 317 317 317 317 317 317 318
320 320 320 319 317 318 320 319 319 318 318 319 319 319 319 317 316 317 317 317 318 318 318 317 316 316 316 315 315 314 314 316 316 315 313 313 313 313 315 316 317 318 319 318 318 318 316 316 316 315 314 314 315 316 316 316 315 315 315 316 316 316 317 317 317 317 317 318 318 318 318 317 316 315 315 315 315 315 316 316 316 316 317 317 317 317 317 317
321 320 319 319 319 319 318 319 320 319 319 319 318 319 319 317 316 316 316 317 317 318 318 316 316 316 316 315 315 315 314 314 315 315 314 314 314 314 315 317 318 319 319 318 318 317 316 316 317 316 315 314 315 316 317 316 315 316 316 316 316 316 316 317 316 316 316 317 318 317 317 316 315 315 314 314 314 315 315 316 316 316 316 316 316 316 316 317
321 320 320 319 320 319 318 319 319 319 319 319 318 319 319 318 317 316 316 316 316 317 317 316 316 316 316 316 316 315 314 313 314 315 315 314 314 315 315 317 317 316 316 317 316 317 316 315 317 317 315 315 316 316 316 316 315 315 315 316 315 315 316 316 316 316 317 317 317 317 316 316 315 314 313 314 314 314 316 316 315 315 316 315 315 316 316 316
320 322 321 319 320 320 319 319 320 320 320 319 319 320 319 318 318 317 316 316 316 316 317 316 316 316 316 316 316 315 314 315 315 315 315 314 315 315 315 316 316 314 315 316 316 317 316 315 316 317 315 315 316 315 315 315 315 315 315 315 315 315 315 316 315 316 316 316 316 316 315 315 314 313 313 313 314 315 315 315 315 315 315 315 315 315 315 315
321 322 319 318 321 322 321 321 322 320 320 320 319 319 319 318 318 317 316 316 316 316 316 316 315 316 315 315 316 316 316 316 315 316 316 316 315 315 315 315 315 314 316 317 316 317 316 315 316 316 315 315 315 315 315 315 315 314 314 314 314 314 315 315 315 315 315 315 315 314 314 314 313 312 313 313 314 315 315 315 314 314 314 314 314 315 315 315
323 323 320 319 321 322 321 321 321 320 320 320 319 319 320 319 318 317 315 317 317 315 315 315 315 315 316 315 316 316 316 316 317 316 317 316 316 315 315 315 314 315 316 316 316 316 315 315 316 316 314 314 315 315 315 314 314 314 314 313 313 314 314 314 314 314 314 314 314 314 314 314 312 313 313 313 314 314 314 314 314 314 314 314 314 314 314 314
319 319 319 321 321 320 321 322 321 320 319 319 319 319 319 318 317 317 316 316 317 316 315 315 315 315 316 316 316 316 315 315 316 316 316 316 316 315 315 315 314 314 315 315 315 315 314 314 316 315 313 313 314 315 314 314 314 314 314 314 314 314 313 313 314 314 314 314 314 313 313 312 312 313 313 313 313 314 314 314 314 314 314 314 314 314 314 314
318 318 318 321 321 320 321 321 320 319 319 320 321 319 318 318 316 316 315 314 315 316 315 315 316 316 316 317 316 315 315 315 315 315 315 315 314 314 314 314 314 314 314 314 314 314 313 313 314 313 312 312 313 314 314 314 314 314 315 315 314 314 314 313 314 314 314 314 313 312 312 312 312 312 312 312 313 313 313 313 313 314 314 313 313 313 314 314
Wind_Speed
13 13 14 14 14 13 12 12 13 13 11 7 5 7 9 10 10 8 7 8 7 6 5 5 4 3 3 3 3 4 4 5 3 3 4 5 9 10 9 8 8 11 14 15 15 14 14 11 11 10 9 8 7 6 7 5 5 6 5 5 5 4 3 4 5 2 3 4 6 8 10 8 2 5 4 6 7 9 8 7 8 5 4 6 9 13 15 13
12 13 14 14 14 13 12 13 14 14 11 6 4 6 8 9 9 8 7 7 7 6 5 5 4 3 4 4 4 4 5 8 9 8 8 10 12 12 11 11 9 10 13 13 13 13 13 12 11 11 9 8 7 6 7 7 7 7 4 4 5 2 4 3 2 3 3 5 7 7 9 8 3 4 3 5 8 9 8 9 10 7 6 8 10 13 14 11
12 12 13 13 12 12 12 13 14 13 10 5 3 5 7 9 9 7 7 7 7 6 5 5 4 5 5 5 5 4 8 11 11 8 9 12 11 11 11 10 9 10 11 11 11 12 11 11 11 11 9 7 6 6 7 8 7 6 4 5 2 3 2 2 0 2 3 6 7 6 8 6 3 2 2 3 7 8 7 9 10 9 10 10 11 14 12 9
12 13 13 12 12 12 12 13 14 12 8 4 2 4 7 9 9 7 7 7 8 7 5 5 5 6 5 6 5 5 8 7 7 6 9 11 10 10 9 8 7 8 10 10 11 10 9 10 10 10 8 6 6 7 7 8 6 4 5 5 3 3 1 3 2 3 3 6 6 6 6 3 1 2 3 3 6 6 6 9 7 7 12 13 13 14 11 8
12 13 12 11 11 12 13 14 13 11 7 3 2 4 7 8 8 6 6 7 8 8 7 6 6 6 6 6 4 3 4 3 6 4 8 10 9 8 8 6 5 5 8 11 11 10 10 11 10 9 8 6 6 8 8 9 6 3 6 6 2 1 3 1 1 3 3 5 5 5 5 2 0 2 3 5 4 4 4 5 3 3 11 16 15 13 11 9
13 13 12 11 11 12 13 14 12 10 6 4 3 5 7 8 7 5 5 6 7 8 8 7 7 6 7 7 7 5 1 2 6 3 7 9 8 8 6 6 5 7 10 10 11 11 11 11 11 9 8 6 7 7 6 9 7 5 6 5 5 5 4 3 3 4 4 5 6 6 5 2 4 3 3 7 2 5 3 3 3 4 11 15 15 12 10 9
13 12 11 12 12 13 14 13 11 8 6 5 5 6 7 8 7 5 4 5 7 8 9 9 8 8 8 8 10 9 7 8 4 4 6 9 9 8 5 6 7 10 11 10 11 10 10 11 10 8 7 5 6 6 5 8 8 7 3 3 5 5 5 6 5 5 5 7 7 7 6 5 6 3 3 7 3 3 1 2 4 6 11 14 13 11 9 9
13 12 12 12 12 14 14 12 9 7 7 6 6 7 7 7 6 5 4 5 6 7 9 10 9 8 7 8 5 6 10 8 2 5 5 8 10 8 6 8 10 10 10 9 9 8 8 7 6 7 6 3 4 5 5 7 9 9 6 3 5 5 6 7 6 7 7 8 8 8 8 7 6 3 3 7 6 4 1 3 6 7 10 11 10 11 11 10
12 12 12 13 13 13 12 10 9 8 8 7 7 7 7 7 6 6 5 5 5 6 9 10 10 8 7 7 1 2 8 6 3 7 6 8 10 9 7 9 11 10 8 8 7 5 4 3 3 4 3 2 4 5 5 7 5 6 7 5 6 6 6 7 8 7 6 7 7 8 9 7 4 4 6 8 7 7 5 4 7 8 10 11 10 11 12 11
12 12 12 13 13 11 10 10 10 9 8 8 7 7 7 7 7 6 5 5 5 7 9 10 11 9 9 6 2 2 7 5 6 8 9 10 11 9 6 8 10 9 8 7 5 3 3 3 3 2 1 3 3 3 5 6 1 1 5 6 7 8 7 8 8 5 5 6 7 8 7 5 5 5 6 8 9 9 8 6 8 10 10 11 10 10 12 12
11 12 13 13 12 11 11 11 10 9 9 8 7 7 7 7 7 7 6 6 6 7 10 11 11 12 13 10 5 6 7 5 8 10 12 13 12 8 5 7 8 6 5 5 3 3 4 4 3 1 2 3 4 4 4 3 3 2 5 7 7 8 7 8 7 5 6 6 8 9 4 4 6 8 5 7 10 11 10 8 10 12 11 12 11 10 12 12
11 12 13 12 11 11 11 10 10 9 9 8 7 7 6 6 6 7 7 7 7 8 10 11 10 13 14 12 11 9 8 8 10 13 15 14 11 8 6 8 7 5 4 2 2 2 3 3 3 2 1 1 3 3 2 1 3 4 5 7 5 7 7 6 3 4 6 5 8 9 6 7 8 9 6 7 9 10 11 11 11 13 12 12 11 10 11 12
10 12 12 11 10 10 10 10 10 9 8 7 7 7 6 6 6 7 8 8 8 9 11 12 13 13 11 10 12 11 12 12 10 13 16 14 11 9 10 10 8 6 4 2 1 1 2 3 3 4 2 2 1 2 0 1 4 5 4 6 4 6 6 5 2 4 6 4 8 9 6 7 11 11 8 8 9 11 13 13 13 15 13 13 12 10 10 12
10 11 11 10 10 10 10 10 10 10 9 8 8 8 8 9 7 7 8 8 9 10 11 13 15 15 12 11 12 12 14 14 12 13 15 14 10 9 9 7 6 5 3 1 1 2 2 3 3 2 1 3 2 1 4 5 5 3 3 4 4 5 5 8 3 4 6 5 7 8 7 5 8 11 11 9 10 12 13 13 14 15 15 14 13 11 9 10
9 10 10 9 10 10 10 10 11 11 10 8 8 8 10 11 9 7 8 10 10 11 11 12 12 10 10 11 10 11 13 13 13 12 13 13 8 6 6 5 5 3 2 1 1 1 2 3 3 3 1 2 3 5 6 4 5 3 4 5 5 5 4 8 4 2 2 5 7 8 7 7 4 7 10 10 10 12 13 13 14 16 16 15 13 12 10 9
8 8 9 9 10 9 10 11 11 12 11 8 6 7 8 12 12 8 9 11 12 12 11 11 10 4 6 10 8 9 11 10 9 10 11 10 6 4 4 4 3 3 3 1 0 0 1 2 3 3 2 4 4 4 4 4 5 4 5 4 3 5 3 6 6 4 1 4 7 7 6 7 4 4 7 8 10 12 13 13 15 16 16 16 14 13 11 10
6 7 8 8 9 9 10 11 11 12 11 8 6 6 7 11 14 10 8 10 12 14 12 10 10 8 8 8 7 9 9 7 8 8 8 7 5 4 3 3 2 2 2 2 1 1 1 2 3 3 3 3 2 3 5 5 4 3 4 4 3 4 4 2 6 7 3 2 4 6 6 8 7 3 5 7 9 12 13 13 15 16 15 15 14 14 12 11
5 6 7 8 8 8 8 9 10 12 12 9 7 6 7 13 17 16 12 10 9 10 10 8 5 7 9 7 6 7 7 7 8 7 5 5 4 3 2 2 3 2 4 4 2 2 3 3 4 3 3 2 1 3 5 3 3 3 4 4 4 5 6 4 2 6 3 5 5 6 7 9 10 9 6 6 7 11 13 14 14 15 15 15 15 14 13 13
5 6 6 7 7 7 7 9 10 12 12 9 7 6 7 11 17 20 18 13 8 5 5 8 7 4 7 8 6 5 6 8 7 5 4 3 2 2 1 2 3 5 7 5 4 3 4 4 4 2 1 2 3 4 6 5 5 6 6 5 5 4 5 5 1 2 2 6 8 8 8 8 8 8 5 6 7 10 13 14 14 15 16 16 16 14 13 12
4 5 6 6 6 6 6 8 10 12 12 9 6 5 4 5 8 12 15 15 12 9 5 7 9 6 7 7 5 4 6 6 5 3 2 2 1 2 2 2 5 5 3 1 2 1 5 3 1 3 5 6 6 4 6 5 4 6 6 6 7 6 5 5 2 2 1 6 7 7 8 8 8 6 3 3 7 10 12 14 14 15 16 15 16 14 12 11
4 5 5 5 6 5 6 8 11 12 12 9 6 5 4 4 4 6 8 12 15 13 10 9 10 8 9 9 7 6 6 6 6 3 1 2 2 4 2 1 5 3 3 1 1 1 5 2 4 6 6 7 6 3 3 4 5 6 6 6 7 7 6 4 1 3 2 6 5 4 6 8 8 6 1 2 6 8 9 12 13 14 14 13 14 13 11 10
5 5 4 5 5 5 6 8 10 11 11 8 7 8 7 6 6 5 4 7 13 14 11 11 11 10 11 11 10 7 4 7 8 6 5 2 4 3 1 1 2 2 2 2 3 4 4 2 6 6 5 4 3 2 2 5 5 6 5 5 5 5 5 3 2 4 4 5 3 3 6 8 6 4 2 3 6 6 6 7 10 12 13 12 12 12 12 12
5 5 4 4 5 5 5 6 8 9 9 8 8 8 7 6 7 7 3 4 9 12 10 11 11 10 10 10 10 7 5 6 7 8 7 4 2 3 2 2 1 1 1 2 3 3 1 5 7 6 3 3 1 3 1 4 5 5 4 5 4 2 3 5 5 6 4 4 4 2 5 7 4 3 3 2 3 3 3 3 5 8 10 10 10 10 12 12
5 5 4 4 4 4 4 6 7 6 7 8 7 6 6 6 6 6 3 1 7 10 10 10 10 11 10 7 7 8 10 10 8 8 8 6 3 2 2 3 3 2 2 4 4 1 4 7 6 4 3 4 4 3 5 5 3 1 2 5 5 3 4 5 1 4 5 5 5 5 7 7 5 5 4 4 2 1 2 2 1 2 5 6 5 6 7 9
5 5 4 3 3 3 3 5 5 4 6 7 5 5 5 5 5 4 1 2 6 7 6 6 6 9 10 5 4 5 8 11 10 9 9 7 5 4 1 2 4 2 5 2 4 0 6 7 5 4 3 4 5 4 8 8 5 1 4 6 8 7 6 6 4 5 6 6 5 4 8 6 5 5 2 2 3 6 8 8 7 5 2 3 4 5 6 8
5 4 3 2 2 2 3 3 3 4 5 3 2 3 4 4 4 3 2 2 6 6 5 4 3 6 9 5 2 1 4 7 9 10 10 7 5 5 2 0 2 4 4 3 2 1 4 5 4 5 5 6 6 4 8 10 7 3 4 8 8 8 7 7 7 6 7 6 3 2 8 5 6 4 1 2 5 10 11 13 14 12 9 6 4 6 7 9
5 3 3 2 1 2 2 0 2 5 3 1 1 1 3 3 4 3 4 2 6 5 6 6 4 6 8 6 2 3 1 4 4 9 12 6 4 4 4 2 1 3 2 3 2 1 4 6 6 7 6 5 5 4 8 11 7 3 7 9 9 8 7 7 8 7 6 5 2 5 8 6 6 3 5 2 6 10 12 14 16 17 16 14 10 6 8 9
5 3 2 2 2 2 2 0 2 3 1 1 1 1 2 1 3 2 4 1 4 4 4 5 4 5 6 6 6 4 5 4 1 8 11 6 5 4 3 5 3 3 3 6 3 2 5 8 8 9 6 4 5 5 8 10 7 5 10 10 8 7 8 7 7 8 5 5 6 7 7 7 6 3 6 4 6 11 13 14 16 18 19 18 16 12 9 9
5 3 3 4 4 3 2 2 3 1 2 1 1 1 2 1 1 4 4 2 2 2 2 3 2 4 3 3 9 9 8 7 5 7 8 6 7 5 3 5 2 3 5 5 3 4 5 7 9 9 6 6 8 6 7 8 7 7 12 12 9 8 8 7 6 6 5 6 7 4 3 6 3 3 5 6 8 10 11 12 14 18 20 19 19 18 14 8
6 6 6 6 5 3 3 3 2 2 2 1 1 2 3 1 2 5 1 3 1 1 2 3 3 3 3 1 6 8 7 8 6 5 5 6 7 6 5 3 1 1 3 5 5 5 5 3 5 8 7 7 9 7 4 5 7 9 11 11 8 6 7 8 6 4 6 7 4 2 3 6 4 3 5 6 7 9 9 9 13 17 19 20 20 20 19 14
8 8 7 6 4 4 4 2 2 1 1 2 2 3 3 2 3 3 2 2 1 1 1 2 4 3 2 2 4 5 6 7 7 5 5 6 7 7 4 1 2 4 2 3 4 5 4 2 3 5 7 11 10 7 3 3 6 8 7 6 6 4 5 7 4 5 8 5 3 4 3 5 4 3 6 6 8 9 9 10 13 16 18 20 21 21 21 18
8 8 6 6 4 3 3 1 1 1 1 3 5 3 3 3 2 1 3 2 2 1 1 2 4 3 2 4 5 5 3 4 7 7 5 4 5 8 7 4 5 3 1 4 2 1 1 3 6 3 4 11 12 7 4 2 4 6 4 3 5 2 1 3 3 4 7 3 4 5 4 2 2 5 6 7 9 10 11 12 13 15 17 18 19 20 20 20
8 7 6 5 4 3 2 1 2 2 2 5 5 3 5 3 1 2 2 1 0 3 2 2 3 4 1 0 4 5 3 3 4 3 2 3 3 6 8 9 8 5 3 4 4 4 1 5 7 6 3 10 12 7 6 5 5 5 4 3 3 2 2 3 3 3 3 1 4 3 2 2 4 5 6 7 9 12 13 14 15 16 16 16 17 18 19 20
7 6 5 4 3 2 2 2 3 2 3 6 5 4 4 2 1 1 1 2 3 2 1 1 1 3 3 2 4 4 2 4 5 3 1 3 3 4 6 9 10 7 4 3 2 5 4 2 7 9 6 10 10 6 7 8 7 5 3 4 3 2 2 2 2 2 1 2 5 5 3 3 4 4 7 9 9 12 14 15 16 16 17 16 16 17 18 19
5 4 3 2 2 1 2 2 3 2 3 6 5 4 2 1 2 2 1 3 2 2 1 1 3 1 3 4 3 3 3 2 3 3 4 4 3 4 4 6 10 9 6 4 2 4 6 2 7 6 5 8 7 6 8 8 5 2 2 4 2 1 3 3 3 4 4 1 3 4 3 3 4 4 9 12 11 14 17 19 20 19 19 18 16 18 19 18
4 3 2 2 2 2 2 4 6 2 5 7 4 2 1 2 2 1 2 2 1 0 2 3 2 2 2 2 2 3 1 1 1 1 2 4 4 5 4 5 7 8 7 5 3 3 5 3 6 5 4 6 6 6 8 8 5 2 2 3 3 3 4 5 3 1 3 3 1 2 3 5 5 3 9 14 13 16 19 20 21 21 21 20 19 19 19 19
4 3 3 3 2 1 3 7 7 3 7 6 1 2 2 3 3 3 3 2 1 1 4 3 0 2 1 1 1 2 1 1 1 2 0 2 2 4 4 4 6 7 7 6 3 3 5 2 6 6 5 5 3 5 6 8 7 4 2 4 5 4 3 4 3 1 3 2 1 2 2 3 2 1 9 14 14 16 17 18 19 20 21 21 20 20 20 19
3 3 3 4 1 2 5 8 5 5 5 2 4 4 1 2 3 3 3 2 1 2 4 2 2 2 2 1 1 4 4 3 0 1 1 0 1 3 3 3 5 6 6 6 4 2 4 3 5 4 5 4 3 4 2 6 7 4 3 2 3 3 1 1 2 3 3 1 1 2 3 5 3 3 8 11 12 13 14 14 16 18 20 20 19 20 20 19
2 2 3 4 2 3 7 7 3 5 4 3 5 3 2 4 5 4 2 2 2 2 2 2 2 1 1 3 2 3 4 4 2 1 1 1 1 2 3 3 4 5 6 6 5 2 3 3 3 4 2 1 3 4 3 4 5 2 1 1 3 3 3 3 2 3 4 3 1 1 3 3 5 5 8 10 10 11 11 11 12 14 17 18 18 19 19 18
0 0 3 4 2 4 6 5 4 3 3 4 4 4 4 5 6 5 3 2 2 3 2 2 1 0 1 1 2 2 3 3 3 2 1 2 1 2 3 3 5 6 5 4 3 2 2 2 2 3 1 2 2 6 6 6 6 4 2 4 5 3 2 1 1 2 3 3 3 2 1 4 5 4 6 9 9 10 10 10 11 12 14 15 16 17 17 17
1 0 3 3 3 4 5 6 6 3 4 5 4 5 4 4 6 7 5 3 3 4 4 3 2 2 2 1 1 2 2 1 1 2 1 2 1 1 3 4 6 6 4 3 1 3 2 2 2 2 1 1 3 5 6 7 7 6 5 5 5 4 3 3 1 1 2 3 3 3 1 4 4 3 5 8 8 9 10 11 11 12 13 14 14 15 15 16
2 0 3 4 3 4 3 5 5 2 3 4 5 6 4 3 5 6 5 4 4 4 4 4 4 3 2 2 2 2 2 1 1 1 1 3 3 3 4 5 6 6 4 1 3 4 3 3 2 1 3 3 4 3 4 5 4 4 5 5 5 4 4 4 2 2 2 1 1 3 1 4 2 3 5 7 8 10 11 12 11 11 12 12 13 14 14 15
0 2 3 4 4 5 3 5 4 3 5 5 6 7 5 3 3 4 3 3 3 2 3 3 3 3 3 2 2 1 1 1 2 1 1 2 3 4 5 6 6 5 4 1 2 2 1 2 2 0 2 2 4 3 1 1 2 2 4 5 5 4 3 4 4 3 2 1 1 3 0 3 2 4 6 7 9 10 12 12 11 11 11 12 13 13 13 14
3 4 2 3 3 1 1 3 4 4 5 6 7 7 6 5 5 3 3 4 3 2 2 3 3 3 3 2 1 1 1 1 0 1 1 1 3 4 4 5 5 4 4 4 3 1 1 2 3 2 1 3 4 3 3 2 1 4 4 5 5 4 3 2 2 3 1 2 4 4 2 4 2 3 6 8 9 10 12 13 12 11 12 13 14 14 13 13
4 3 3 1 1 1 1 3 4 5 6 6 7 6 6 5 5 5 5 6 5 3 2 3 2 2 2 1 0 2 2 2 0 1 0 1 2 3 3 3 3 4 6 5 5 3 2 2 4 4 4 2 2 2 1 1 2 2 3 5 5 4 3 3 3 3 1 2 3 3 3 3 2 4 7 9 10 10 12 13 12 12 13 13 14 14 13 13
2 2 2 3 3 2 4 5 4 5 7 6 6 4 3 5 4 4 4 5 5 4 3 3 2 1 2 2 1 2 2 2 1 1 1 1 3 3 3 2 3 5 4 3 4 3 1 2 4 5 5 5 5 4 3 3 4 2 2 4 5 5 5 5 3 2 2 1 1 3 3 4 4 6 9 10 10 10 10 12 13 13 13 14 14 14 13 12
1 0 1 1 3 4 6 6 5 5 5 4 3 3 4 5 5 3 2 2 3 4 3 2 1 2 1 2 2 1 2 2 2 2 2 2 3 4 3 2 3 4 4 3 3 3 3 1 3 4 4 4 4 2 1 2 2 1 1 3 4 4 5 4 3 4 4 3 1 4 4 5 5 7 9 9 9 9 9 11 12 12 13 14 14 14 14 14
2 2 2 1 1 2 3 4 4 5 4 2 1 3 5 5 4 3 2 3 4 3 1 1 2 1 2 1 2 2 3 3 2 2 2 1 2 4 4 4 2 2 4 2 2 3 4 1 1 2 2 2 2 1 1 1 1 1 1 2 3 3 4 4 4 5 6 4 3 4 4 5 6 7 8 9 9 9 9 9 10 11 13 14 15 15 15 15
1 3 4 2 2 3 4 4 6 6 4 2 2 3 4 5 4 2 2 3 4 2 2 3 4 3 3 1 1 2 3 2 2 3 2 1 1 2 1 2 1 1 1 2 3 2 4 1 2 3 2 1 1 1 2 3 3 3 1 0 1 2 3 3 3 4 4 3 3 4 4 3 5 6 8 9 9 10 9 8 9 11 13 15 15 15 15 15
3 3 4 4 4 5 5 5 6 6 4 2 2 3 3 4 4 3 2 1 2 2 3 5 6 4 2 1 1 0 1 1 0 2 2 2 2 1 1 1 1 2 2 2 2 1 3 0 3 4 4 1 1 2 3 3 2 2 2 1 1 1 1 1 2 2 2 1 2 4 4 1 5 7 9 9 9 10 9 10 10 11 12 14 15 16 16 16
5 6 7 5 4 4 4 5 5 4 3 3 2 3 4 4 5 5 3 1 1 3 5 6 7 5 2 1 0 2 1 2 2 1 1 3 1 2 1 1 2 1 1 1 1 2 3 0 3 4 5 1 2 4 4 3 3 3 3 3 1 2 2 2 2 2 3 3 3 4 3 2 6 9 10 10 10 11 11 11 11 11 13 14 15 16 16 16
5 6 7 5 1 2 4 4 4 4 2 2 2 4 4 4 6 6 4 2 1 3 5 7 6 3 2 2 1 3 2 3 3 2 2 3 1 1 0 1 1 3 2 1 1 2 3 2 1 3 4 0 2 4 4 4 6 5 3 3 1 1 1 2 3 3 3 3 3 3 3 5 8 9 9 9 10 11 12 12 11 11 13 14 15 16 16 16
Wind_Direction
333 335 339 341 341 344 346 348 349 347 342 334 335 343 345 352 353 346 345 346 352 356 354 360 4 3 1 2 4 358 354 359 14 75 89 126 138 128 120 123 141 151 156 156 160 167 163 169 171 175 183 180 193 178 169 179 182 199 220 224 220 206 164 148 160 94 23 20 8 0 358 349 51 107 135 153 139 134 139 137 131 123 154 166 158 166 176 185
335 335 337 338 342 344 344 348 350 350 348 341 338 341 345 352 353 349 351 352 360 2 3 6 4 6 2 4 11 16 47 71 75 88 117 132 129 118 112 114 126 141 148 158 167 170 170 175 171 180 189 182 184 178 177 180 197 219 231 228 224 164 101 96 79 41 344 345 351 349 1 352 7 77 175 174 136 145 147 145 156 144 154 174 167 170 176 181
339 338 340 342 345 345 346 348 351 355 351 350 351 341 347 355 355 356 358 1 7 8 9 5 9 12 4 9 16 51 95 95 80 88 127 134 126 117 113 112 123 140 148 165 176 177 180 176 174 183 192 191 180 184 190 178 197 223 232 233 195 82 85 129 250 318 331 334 333 344 358 346 355 21 257 173 137 161 159 152 173 168 157 167 171 175 175 172
346 343 345 347 348 346 347 348 353 358 357 10 16 347 354 360 0 1 4 8 15 16 14 11 16 13 11 18 23 93 124 122 82 92 138 135 126 121 115 112 124 144 157 174 176 177 178 173 177 184 196 195 172 190 197 177 192 201 217 252 62 79 224 154 206 294 332 323 319 331 333 336 34 315 263 184 155 161 151 149 175 180 164 170 177 179 176 171
351 350 352 353 352 350 349 350 355 360 9 41 40 5 2 5 5 5 10 14 22 26 25 24 22 26 29 22 32 103 176 165 89 113 156 142 134 126 120 115 122 139 159 172 165 166 169 168 174 182 201 195 169 195 195 182 206 210 216 263 339 238 252 137 208 286 313 306 303 306 319 9 159 247 241 229 189 99 84 120 143 170 160 172 181 180 178 182
356 356 357 357 355 353 351 352 358 5 27 63 49 18 8 10 7 11 19 18 31 32 32 32 29 42 37 39 62 61 333 82 91 172 173 158 152 131 127 120 121 130 143 153 149 158 160 164 174 179 198 194 181 197 179 176 208 233 210 230 254 248 260 266 258 271 283 282 283 297 322 323 244 226 217 252 248 67 35 77 104 134 153 173 181 176 174 184
359 360 0 0 359 356 353 356 6 20 49 66 45 22 13 14 8 19 25 21 33 33 34 32 34 44 48 72 81 69 62 65 86 196 171 168 162 136 129 122 124 129 138 142 141 150 148 165 180 178 194 190 191 194 163 175 205 245 233 192 236 253 259 265 265 262 265 269 277 290 290 254 235 226 199 239 225 87 25 125 135 150 167 180 176 170 172 183
360 2 5 5 2 356 355 4 22 45 64 58 37 20 15 16 14 26 27 25 31 30 32 29 36 43 60 89 96 82 71 54 97 175 163 166 161 143 128 128 136 137 143 139 133 145 145 162 169 180 203 166 180 180 163 193 204 232 253 235 247 260 255 259 262 263 261 262 269 266 259 240 232 262 251 233 206 177 222 150 157 163 170 173 167 178 187 196
360 5 10 9 3 359 5 23 44 61 62 48 32 21 18 19 20 27 29 31 27 27 31 30 39 44 69 89 181 86 55 29 110 137 143 154 158 147 128 138 142 141 148 134 128 142 137 147 141 197 234 104 174 177 180 219 201 211 247 265 263 264 260 262 266 265 254 251 254 242 237 228 223 262 248 225 201 187 200 177 169 171 169 167 168 187 198 205
2 10 15 11 7 13 30 45 56 59 53 42 31 26 27 29 27 31 34 35 34 35 36 37 45 53 65 60 282 71 38 25 109 123 130 139 152 145 130 150 147 140 143 129 124 99 80 87 96 208 246 114 174 170 192 237 3 138 264 278 269 270 270 266 268 256 234 234 228 225 229 214 194 232 225 184 181 191 194 188 187 186 179 176 172 187 205 213
5 15 17 15 21 38 48 54 55 50 45 39 35 36 34 33 35 41 41 39 44 45 46 50 59 68 65 42 28 56 36 53 118 128 127 134 150 145 130 153 150 143 139 120 113 78 66 61 61 219 190 136 166 164 192 262 329 312 293 282 257 259 256 250 261 239 217 210 204 213 214 167 177 224 226 151 170 190 195 198 198 197 189 182 175 189 212 220
8 18 20 23 39 52 53 53 47 42 43 42 44 42 34 36 46 54 55 53 55 55 57 62 71 76 72 54 48 56 53 77 124 129 123 134 148 147 147 154 151 148 140 109 98 64 35 38 6 320 61 157 194 166 162 322 293 276 281 279 252 240 233 220 243 221 211 184 178 198 200 177 185 217 205 152 173 187 199 208 200 201 194 184 182 191 212 223
11 20 25 36 52 56 52 46 40 42 47 48 47 41 38 45 55 64 66 65 65 64 68 76 82 77 72 66 59 63 67 77 113 125 123 132 142 149 152 149 140 130 113 87 76 356 348 17 351 342 18 260 268 63 16 234 262 258 247 273 264 228 200 159 144 192 202 159 164 202 226 200 190 202 183 157 181 187 201 212 203 201 194 188 187 189 208 224
12 22 31 47 58 55 49 42 43 47 49 53 50 47 49 47 51 65 70 74 70 69 79 89 91 83 77 73 64 66 70 70 88 109 121 128 136 145 142 133 125 115 90 76 332 322 328 7 341 287 248 277 332 333 254 216 225 247 234 245 248 233 162 124 125 202 193 139 161 214 249 230 187 181 173 168 188 196 206 211 206 203 196 191 187 184 193 213
14 26 40 56 62 55 49 47 48 47 47 54 53 50 46 39 46 65 73 74 70 73 86 95 98 97 92 81 63 69 72 68 78 96 115 121 125 132 129 123 117 97 54 35 297 305 327 348 304 273 222 227 238 249 252 218 213 236 245 221 203 229 156 121 123 207 201 130 168 221 246 246 224 153 158 179 194 205 217 212 207 206 197 190 184 184 182 190
16 33 49 64 67 59 54 53 50 44 39 43 46 37 31 34 46 63 73 73 73 78 86 92 94 87 85 86 78 81 77 72 88 101 109 115 117 121 123 119 93 33 21 44 321 5 347 303 267 280 271 227 232 264 273 245 217 201 238 244 188 223 204 132 130 129 89 131 173 222 254 254 249 120 142 188 202 208 224 219 211 210 200 191 185 185 181 182
23 43 59 72 73 62 57 55 47 38 31 34 41 38 39 47 54 63 73 75 75 79 81 84 95 88 78 89 97 92 87 89 102 102 103 106 105 109 111 122 103 16 52 96 81 112 232 251 241 238 228 235 267 283 269 252 235 191 220 247 224 238 251 173 130 128 156 207 193 216 249 263 258 228 162 185 208 213 223 224 216 212 203 194 188 188 184 183
37 55 68 77 78 63 55 49 38 28 26 38 53 60 68 64 63 65 68 71 71 87 88 69 85 108 90 80 83 94 103 108 107 106 103 99 96 102 119 174 189 182 164 155 144 203 214 208 229 233 201 214 263 263 268 290 305 280 240 247 236 221 236 249 128 116 179 255 251 222 233 250 251 245 202 176 211 223 225 227 221 215 207 199 194 195 191 189
56 69 76 81 81 65 50 39 29 23 27 48 69 77 88 81 72 64 58 57 51 73 84 35 20 73 84 65 62 95 119 121 116 111 114 117 103 101 140 185 183 199 203 187 155 202 228 201 211 255 18 356 336 291 289 317 313 276 259 267 262 228 228 250 266 83 275 264 249 239 243 246 245 241 207 174 204 225 230 227 221 214 207 204 202 199 195 193
77 81 82 87 84 67 50 35 27 25 31 51 70 75 89 96 88 69 57 55 52 54 55 31 36 60 71 57 51 91 117 122 112 114 153 139 121 188 187 181 192 196 213 220 112 184 257 234 138 20 16 5 351 312 289 295 279 255 243 237 240 245 242 238 226 101 254 263 246 241 252 253 253 249 214 188 208 220 227 222 219 215 209 207 206 200 193 187
96 94 89 90 89 75 55 36 29 28 32 47 67 73 54 33 70 82 69 65 60 57 59 52 51 61 57 49 61 99 124 119 96 78 65 58 279 242 194 235 225 169 72 359 94 215 257 267 54 24 9 6 352 325 274 255 240 236 234 231 227 230 232 234 231 115 172 250 231 207 250 246 239 242 196 212 228 225 228 223 220 219 214 209 206 199 190 180
110 109 101 92 94 84 59 39 32 28 31 53 74 77 70 61 81 97 94 79 64 53 56 55 53 64 58 51 68 95 129 114 90 58 29 2 297 295 42 276 276 71 89 227 221 214 225 53 42 13 2 2 3 23 255 238 232 234 229 234 232 220 228 226 162 142 176 245 221 167 248 246 230 242 234 236 247 239 232 231 224 219 215 210 204 199 193 187
125 121 115 96 93 83 61 39 30 25 33 62 74 76 83 87 97 101 86 87 73 53 48 48 47 56 51 51 65 70 81 80 63 48 27 355 348 2 353 337 10 58 236 298 306 263 221 41 26 2 340 296 333 62 290 249 225 241 247 243 236 159 234 225 156 151 179 245 271 267 253 248 222 206 196 210 258 245 225 228 225 224 223 220 214 207 202 199
139 132 128 109 93 81 61 38 22 19 40 57 69 81 93 87 91 94 63 89 90 60 43 43 40 39 35 46 62 60 76 66 40 37 18 358 7 337 337 359 303 243 53 12 319 339 48 29 7 331 309 300 301 20 348 300 249 224 345 306 306 7 296 273 166 178 203 215 241 261 248 235 217 198 158 128 132 72 36 10 323 252 245 244 239 225 217 212
154 141 131 124 104 78 51 37 13 24 54 48 53 76 91 85 83 87 16 187 101 55 30 46 36 29 25 30 59 65 92 70 40 31 15 4 357 321 339 1 308 343 56 1 272 85 54 25 349 310 322 331 310 358 8 330 290 231 51 5 340 336 309 290 274 243 238 220 191 249 259 226 199 208 161 105 82 63 50 39 32 25 344 275 255 246 238 229
164 149 136 129 113 61 42 41 10 44 65 40 37 77 93 88 75 55 284 190 93 29 0 33 18 32 29 17 44 207 161 79 46 30 17 17 18 329 293 273 332 26 33 327 290 50 48 24 352 329 321 323 313 339 12 347 296 262 34 10 338 317 300 282 269 255 259 252 159 228 267 240 203 201 72 52 69 61 52 47 36 26 17 352 300 261 245 235
165 159 143 106 109 71 50 315 3 45 56 351 358 106 112 92 57 26 267 172 83 1 344 12 5 40 38 21 8 257 231 77 71 36 18 18 40 316 303 1 33 60 22 287 277 54 29 24 14 356 329 318 329 342 2 345 304 308 13 348 324 309 300 290 275 261 270 279 219 230 257 266 239 177 68 67 87 59 40 40 33 24 20 11 357 316 269 246
158 157 143 103 113 99 89 128 44 40 333 279 238 152 154 123 37 329 256 123 57 335 340 14 16 41 34 34 54 61 45 25 329 26 15 12 25 317 328 39 27 55 20 288 285 71 38 28 21 2 351 356 357 355 355 335 308 350 354 324 306 299 295 294 278 265 270 273 256 240 237 257 249 140 77 53 62 39 27 32 27 22 21 16 11 357 321 272
142 140 132 115 107 98 99 83 60 2 287 282 235 175 160 141 359 273 250 79 43 328 18 7 4 24 356 48 63 65 58 38 27 28 20 29 28 1 47 62 41 59 42 348 5 80 59 37 30 17 11 8 350 341 348 331 312 333 328 305 277 266 267 261 259 260 258 257 263 268 242 253 253 86 54 38 36 18 17 27 24 22 21 18 15 10 0 329
126 126 123 113 104 95 84 59 28 299 275 254 222 135 147 189 262 252 212 78 43 70 33 354 360 346 294 178 75 64 64 54 38 27 44 52 42 47 85 104 248 256 82 60 64 92 93 89 59 36 19 355 334 319 321 314 309 305 298 289 278 286 282 259 243 241 245 242 246 11 340 268 252 60 39 40 35 15 12 19 21 21 22 21 18 15 15 11
119 119 117 109 105 96 80 44 326 301 255 212 161 133 165 214 258 263 97 91 306 54 57 30 42 12 354 69 70 60 66 60 33 14 42 52 41 39 56 141 302 270 215 66 77 116 120 126 80 54 27 359 330 308 293 274 303 300 282 277 282 316 317 278 257 232 235 219 123 62 9 264 245 59 47 47 40 24 18 17 17 18 20 23 22 21 21 21
117 113 110 101 98 90 77 43 348 58 177 167 144 163 227 230 237 20 85 177 251 32 51 32 34 36 58 67 58 44 43 55 39 29 32 34 49 46 38 28 356 311 305 11 9 203 155 79 41 43 42 7 341 318 318 291 311 312 296 279 264 264 297 269 273 243 239 205 98 49 9 258 152 63 39 38 37 26 20 18 16 16 18 22 25 27 27 25
116 112 107 95 81 70 63 55 51 65 156 157 155 200 252 247 176 50 76 172 31 47 39 354 20 25 320 249 54 36 19 41 29 31 39 4 44 70 61 44 11 346 6 1 339 341 54 116 39 1 3 2 349 334 339 334 328 332 341 327 280 267 248 242 237 235 247 168 120 82 26 176 137 81 29 31 40 29 22 19 16 17 18 20 23 27 30 31
117 109 100 83 67 56 25 36 44 45 146 164 189 221 245 244 92 80 142 85 75 84 57 315 339 40 48 56 42 9 5 66 34 360 356 350 19 53 52 40 20 359 343 331 349 355 329 145 34 12 350 351 355 357 347 326 313 332 345 312 296 309 307 290 269 267 315 105 138 152 173 190 162 103 28 20 27 23 20 19 16 17 17 17 20 22 25 29
119 108 91 55 41 12 346 16 23 13 153 174 211 225 225 199 127 155 128 81 99 145 119 235 259 250 97 91 68 20 351 47 44 18 22 21 33 37 22 27 19 2 342 341 8 346 316 351 45 27 347 352 2 9 351 323 309 354 316 287 305 345 315 305 298 332 346 337 145 150 152 102 131 114 27 12 11 12 10 12 13 13 13 13 16 19 18 18
119 99 50 7 339 336 6 11 3 15 171 191 216 198 139 38 66 106 53 35 29 7 219 203 248 269 164 134 121 98 38 323 326 339 58 62 65 52 36 33 18 8 6 359 6 355 323 14 56 13 357 27 10 1 7 350 330 322 298 333 3 323 297 289 268 331 304 265 164 146 151 113 143 141 20 9 8 10 5 6 7 7 8 8 9 10 8 8
114 81 33 2 324 338 21 4 5 95 174 212 211 100 73 42 35 36 43 10 2 340 264 232 30 326 291 163 93 58 10 257 266 295 200 111 79 52 41 44 22 14 19 357 1 38 321 338 68 13 358 47 354 319 8 11 350 331 1 15 342 291 268 281 282 254 254 248 113 165 153 96 160 224 19 11 7 7 0 358 1 3 5 5 4 1 358 359
101 74 29 7 12 37 9 358 17 124 166 185 102 91 48 70 53 33 43 12 330 271 272 290 38 346 319 298 19 24 339 296 284 353 321 199 63 27 358 36 34 23 17 333 323 50 314 297 90 40 355 37 9 307 345 34 28 20 39 23 322 302 272 283 296 302 297 309 93 154 127 72 34 13 18 11 6 3 355 353 357 1 3 1 359 357 355 355
83 78 40 25 50 35 4 5 45 143 161 122 112 108 77 87 75 52 50 21 339 293 288 17 25 353 2 330 341 21 349 337 355 339 322 338 66 62 2 360 12 12 6 329 322 18 317 298 80 62 8 342 14 15 5 29 48 56 149 39 352 334 336 343 329 311 314 315 338 140 143 85 46 17 5 8 7 1 355 353 357 359 360 0 359 357 355 355
346 135 65 59 81 42 26 48 89 133 131 93 93 112 109 99 86 69 49 30 359 341 4 68 13 63 87 5 339 15 357 352 355 336 356 1 3 115 70 7 347 356 350 316 327 3 296 287 22 61 123 236 1 35 18 8 18 9 3 19 6 340 307 325 312 303 314 316 334 333 154 92 63 12 2 10 6 2 359 354 355 358 358 2 1 358 357 357
227 192 86 102 101 57 60 84 83 82 101 95 92 106 108 94 96 92 76 73 64 34 40 64 56 66 73 34 50 19 340 333 19 357 34 41 356 75 67 9 335 333 310 266 359 13 336 299 337 23 73 57 61 48 21 10 7 5 13 10 351 342 317 283 241 59 328 325 341 319 349 87 73 6 10 11 2 4 4 356 353 358 2 5 4 0 2 2
227 63 113 140 95 55 77 87 74 76 100 98 95 96 96 91 99 101 88 85 85 68 66 67 56 61 52 12 16 355 322 340 27 6 27 33 17 18 23 355 326 316 301 290 51 23 336 300 310 15 31 45 95 100 30 13 2 9 28 10 339 335 327 314 351 24 327 319 320 292 329 84 67 11 12 7 3 3 3 1 357 1 5 6 5 4 5 7
222 75 136 161 100 69 90 103 97 96 89 97 100 88 86 92 94 107 100 69 70 81 83 71 51 47 48 18 341 319 340 357 357 11 43 36 32 28 6 339 319 307 300 339 79 73 290 296 302 170 112 124 152 164 190 278 308 8 25 4 342 335 334 330 338 335 318 2 330 280 63 92 60 12 9 6 7 4 5 7 4 6 7 2 0 1 3 7
103 87 96 186 157 46 342 112 120 115 105 118 120 100 87 72 51 60 80 48 40 73 89 78 60 47 54 25 336 9 4 315 315 23 359 10 44 39 12 339 326 346 14 14 8 348 311 338 321 293 205 165 182 195 199 215 333 14 8 351 346 333 307 300 308 290 265 18 339 316 40 80 67 14 9 5 4 7 11 10 7 9 7 359 357 356 356 0
137 111 76 116 189 278 342 105 125 130 129 131 127 119 112 92 49 36 66 68 51 41 70 88 74 60 88 157 128 78 20 330 70 121 307 78 82 64 44 15 356 36 50 22 334 304 307 356 342 327 345 7 350 7 35 347 341 10 7 354 355 341 305 285 280 265 191 56 355 346 25 50 44 14 11 10 4 5 10 9 11 13 8 3 360 356 356 358
181 164 115 95 75 75 107 118 132 139 142 143 132 133 144 127 104 66 68 83 78 64 64 90 112 135 149 191 191 106 88 44 44 125 156 123 110 94 69 62 65 57 46 2 331 305 278 20 6 347 353 357 357 15 25 341 323 336 17 8 10 357 324 301 290 319 18 30 86 60 357 335 8 12 8 10 3 358 4 6 8 9 8 7 5 3 3 1
224 115 100 117 98 102 118 135 150 137 139 158 144 147 158 140 134 130 78 74 106 112 86 72 158 224 190 187 194 103 112 122 100 94 102 96 113 118 126 146 93 43 353 322 333 292 261 46 23 350 360 1 349 1 7 326 332 343 349 2 13 3 341 339 350 355 344 309 116 69 351 325 7 11 359 2 356 350 358 1 360 1 2 2 3 6 8 7
211 97 87 171 139 119 124 144 152 131 129 159 154 153 162 152 154 155 118 111 131 155 170 121 134 108 80 168 205 156 151 151 132 137 136 118 147 155 156 163 147 358 328 330 22 306 287 23 50 297 340 9 319 281 158 132 116 144 286 359 17 10 5 14 9 346 336 333 18 32 350 342 10 3 353 357 349 342 347 350 350 354 357 357 356 359 4 7
137 114 124 139 98 70 81 113 145 146 136 139 147 166 180 176 164 128 109 148 155 175 226 167 137 112 91 69 280 177 167 169 131 151 163 130 175 218 184 149 158 8 2 50 63 344 299 63 120 247 274 28 327 202 170 170 158 157 176 305 341 351 10 18 6 348 346 5 19 352 330 358 21 3 348 345 339 335 337 337 342 350 352 353 352 352 355 359
173 151 142 135 108 95 99 127 164 167 147 161 173 160 186 192 166 136 130 195 160 154 188 161 132 116 101 69 319 98 141 303 326 136 172 199 193 253 308 25 46 73 73 54 60 337 298 53 136 232 256 66 106 185 183 183 166 146 152 166 250 283 305 321 329 320 301 344 5 316 290 21 33 360 341 335 333 334 336 338 339 344 347 347 348 349 349 349
193 171 163 159 129 123 138 149 179 187 175 194 181 144 174 190 164 142 121 32 3 151 159 148 134 131 141 159 47 43 42 284 275 123 195 238 283 353 351 2 332 324 79 53 349 324 307 238 161 233 259 118 146 197 187 195 250 244 214 190 208 268 290 303 302 291 287 307 318 292 288 13 6 343 333 334 336 336 338 341 338 338 341 342 343 346 346 345
173 167 172 179 151 164 172 160 180 201 175 128 118 143 172 172 158 155 132 96 118 125 127 138 149 161 161 132 49 2 330 263 258 254 228 234 253 315 332 58 336 312 357 32 327 343 321 285 211 258 272 183 154 211 211 231 262 258 203 164 181 247 297 293 273 258 254 267 296 317 347 355 338 331 332 334 338 338 335 334 333 333 337 338 339 341 343 343